Regional Weather Roundup
Issued by NWS

Home | Current Version | Previous Version | Graphics & Text | Print | Product List | Glossary On
Versions: 1 2 3 4 5 6 7 8 9 10 11 12 13 14 15 16 17 18 19 20 21 22 23 24 25 26 27 28 29 30 31 32 33 34 35 36 37 38 39 40 41 42 43 44 45 46 47 48 49 50
000
ASUS43 KTOP 241659
RWRKS

WEATHER ROUNDUP FOR KANSAS
NATIONAL WEATHER SERVICE GOODLAND KS
1200 PM CDT TUE APR 24 2018

NOTE:  "FAIR" INDICATES FEW OR NO CLOUDS BELOW 12,000 FEET WITH NO
SIGNIFICANT WEATHER AND/OR OBSTRUCTIONS TO VISIBILITY.

KSZ001>006-013>018-027>032-041>047-241800-
NORTHWEST KANSAS

CITY           SKY/WX    TMP DP  RH WIND       PRES   REMARKS
GOODLAND       MIX PCPN  34  33  96 NW14      30.35S FOG     WCI  25
HAYS           CLOUDY    50  44  80 N23       30.25R
HILL CITY      LGT RAIN  45  43  93 NW12G23   30.30R FOG
RUSSELL        CLOUDY    55  49  80 NW25G32   30.22R
$$

KSZ061>065-074>080-084>089-241800-
SOUTHWEST KANSAS

CITY           SKY/WX    TMP DP  RH WIND       PRES   REMARKS
DODGE CITY     CLOUDY    49  42  77 N24G33    30.26R
GARDEN CITY    CLOUDY    43  40  89 N28G38    30.29R
GREAT BEND     CLOUDY    57  49  74 NW22G28   30.22R
LIBERAL        CLOUDY    49  42  77 N23G33    30.26R
$$

KSZ066>073-081>083-090>101-241800-
SOUTHEAST KANSAS

CITY           SKY/WX    TMP DP  RH WIND       PRES   REMARKS
CHANUTE        SUNNY     75  36  24 N12       30.12F
COFFEYVILLE    SUNNY     74  37  26 NE8       30.11F
HUTCHINSON     CLOUDY    68  43  40 NW9       30.15F
MEDICINE LODGE   N/A     71  41  33 VRB3      30.15F
NEWTON         SUNNY     70  39  32 N6        30.15F
PARSONS        SUNNY     75  36  24 N8        30.12F
WICHITA INTL   PTSUNNY   75  38  26 N9        30.13F
WICHITA JABRA  SUNNY     74  36  25 N8        30.13F
WINFIELD       SUNNY     73  43  33 VRB7      30.14F
$$

KSZ007>012-019>026-033>040-048>060-102>105-241800-
NORTHEAST KANSAS

CITY           SKY/WX    TMP DP  RH WIND       PRES   REMARKS
CONCORDIA      CLOUDY    66  37  34 NW12      30.17R
EMPORIA        SUNNY     72  34  24 CALM      30.13F
LAWRENCE       SUNNY     75  31  19 MISG      30.12F
MANHATTAN      MOSUNNY   73  38  27 VRB3      30.14S
OLATHE IND     SUNNY     72  35  25 N9        30.13F
OLATHE EXE     SUNNY     71  33  24 N9        30.12F
SALINA         PTSUNNY   71  47  42 NW10      30.16F
TOPEKA BILLARD SUNNY     73  34  23 CALM      30.12F
TOPEKA FORBES  SUNNY     72  31  22 N5        30.13F
$$




USA.gov is the U.S. government's official web portal to all federal, state and local government web resources and services.